Location: Grand Lay
(47.3253°N, 0.9468°E)
Time: 08:55:28
(UTC+00:00)

Cosmos 1269 Rocket - Pass Details

Date: 18 January 2026
Orbit: 769 x 775 km, 74.1° (Epoch: 15 February)

Event Time Altitude Azimuth Distance (km) Brightness Sun altitude
Rises 06:09:36 0° 222° (SW) 3,240 7.0 -14.4°
Reaches altitude 10° 06:12:06 10° 229° (SW) 2,318 6.2 -14.0°
Maximum altitude 06:17:04 42° 300° (WNW) 1,107 4.4 -13.2°
Drops below altitude 10° 06:22:06 10° 11° (N) 2,333 6.4 -12.4°
Sets 06:24:37 0° 18° (NNE) 3,264 7.3 -12.0°
